sat.trackr.live / text

‹ back to catalog

STARLINK-1777

NORAD 47122 · 2020-088A

PAYLOAD ACTIVE UNKNOWN

§ Identity

Operator
Country
US
Launch date
2020-11-25
Launch site
AFETR
Launch vehicle
Mass (kg)
RCS (m²)

Purposes: comms

External: N2YO · Heavens-Above · Gunter

§ Orbital elements

Epoch: 2026-05-24T17:33:05.144256Z

Period
91.96 min
Inclination
53.0467°
Eccentricity
0.0003793
Mean motion
15.65916882 rev/d
Perigee alt
368.0 km
Apogee alt
373.2 km
Semi-major
6,748.7 km
B*
5.8871e-4
RAAN
273.6437°
Arg perigee
238.3668°
Mean anomaly
121.6977°
Rev number
30,395

§ Raw data

STARLINK-17771 47122U 20088A   26144.73130954  .00061012  00000+0  58871-3 0  99942 47122  53.0467 273.6437 0003793 238.3668 121.6977 15.65916882303957

JSON: /api/v1/satellites/47122 · /tle

For live sub-satellite position, see the globe view (requires WebGL).

§ Visibility from observer

Set your observer location to see the next 7 days of passes ≥ 10°. The values pass through the URL so the page stays shareable.

No JS? Fill the form by hand. The geolocation button needs JavaScript.